Weston, WY

8:06 AM MST on February 14, 2016 (GMT -0700)
Gillette-Campbell County

Weather History for KGCC - November, 2012

Change the Weather History Date:

Monday, November 26, 2012

  Actual Average Record
Temperature  
Mean Temperature 19 °F 28 °F  
Max Temperature 27 °F 39 °F - ()
Min Temperature 11 °F 17 °F - ()
Degree Days  
Heating Degree Days 46 37  
Month to date heating degree days 705 812  
Since 1 July heating degree days 1502 1721  
Cooling Degree Days 0 0  
Month to date cooling degree days 0 0  
Year to date cooling degree days 795 502  
Moisture  
Dew Point 21 °F    
Average Humidity 91    
Maximum Humidity 100    
Minimum Humidity 81    
Precipitation  
Precipitation 0.07 in 0.01 in - ()
Month to date precipitation 0.54 0.49  
Year to date precipitation 9.01 13.43  
Sea Level Pressure  
Sea Level Pressure 30.28 in    
Wind  
Wind Speed 7 mph (SSW)    
Max Wind Speed 18 mph    
Max Gust Speed 77 mph    
Visibility 6 miles    
Events Fog , Snow    
T = Trace of Precipitation, MM = Missing Value Source: NWS Daily Summary

Daily Weather History Graph

Daily Weather History Graph

Search for Another Location

Airport or City:

Trip Planner

Search our weather history database for the weather conditions in past years. The results will help you decide how hot, cold, wet, or windy it might be!

Date:

Astronomy

Nov. 26, 2012 Rise Set
Actual Time 7:12 AM MST 4:26 PM MST
Civil Twilight 6:40 AM MST 4:58 PM MST
Nautical Twilight 6:04 AM MST 5:34 PM MST
Astronomical Twilight 5:29 AM MST 6:09 PM MST
Moon 3:21 PM MST (11/26) 5:23 AM MST (11/26)
Length of Visible Light 10h 18m
Length of Day
9h 13m
Waxing Gibbous, 97% of the Moon is Illuminated
Nov 26
Waxing Gibbous
Nov 28
Full
Dec 6
Last Quarter
Dec 13
New
Dec 19
First Quarter

Hourly Weather History & Observations

Time (MST) Temp. Windchill Dew Point Humidity Pressure Visibility Wind Dir Wind Speed Gust Speed Precip Events Conditions
12:03 AM 26.6 °F 19.1 °F 24.8 °F 93% 30.15 in 1.0 mi NNE 6.9 mph - 0.01 in Snow Light Snow
12:53 AM 25.0 °F 18.1 °F 25.0 °F 100% 30.25 in 1.2 mi NNE 5.8 mph - 0.04 in Snow Light Snow
1:22 AM 24.8 °F 16.9 °F 24.8 °F 100% 30.17 in 2.0 mi North 6.9 mph - 0.01 in Snow Light Snow
1:43 AM 24.8 °F 16.9 °F 24.8 °F 100% 30.18 in 1.8 mi North 6.9 mph - 0.01 in Snow Light Snow
1:53 AM 25.0 °F 17.1 °F 24.1 °F 96% 30.28 in 2.0 mi North 6.9 mph - 0.02 in Snow Light Snow
2:00 AM 24.8 °F - 24.8 °F 100% 30.19 in 1.5 mi North - - 0.00 in Snow Light Snow
2:29 AM 24.8 °F 17.9 °F 24.8 °F 100% 30.20 in 2.0 mi North 5.8 mph - 0.01 in Snow Light Snow
2:53 AM 25.0 °F 19.3 °F 24.1 °F 96% 30.31 in 2.5 mi NNW 4.6 mph - 0.01 in Snow Light Snow
3:08 AM 24.8 °F 19.1 °F 24.8 °F 100% 30.22 in 3.0 mi North 4.6 mph - 0.00 in Snow Light Snow
3:20 AM 24.8 °F 16.1 °F 23.0 °F 93% 30.22 in 2.5 mi NNW 8.1 mph - 0.01 in Snow Light Snow
3:31 AM 24.8 °F 16.9 °F 23.0 °F 93% 30.23 in 4.0 mi NNW 6.9 mph - 0.01 in Snow Light Snow
3:53 AM 24.1 °F 16.0 °F 23.0 °F 96% 30.34 in 3.0 mi NNW 6.9 mph - 0.01 in Snow Light Snow
4:14 AM 21.2 °F 14.9 °F 21.2 °F 100% 30.23 in 6.0 mi NW 4.6 mph - 0.00 in Snow Light Snow
4:41 AM 10.4 °F - 10.4 °F 100% 30.24 in 10.0 mi Calm Calm - 0.00 in   Mostly Cloudy
4:49 AM 15.8 °F - 12.2 °F 86% 30.24 in 10.0 mi Calm Calm - 0.00 in   Mostly Cloudy
4:53 AM 18.0 °F - 16.0 °F 92% 30.38 in 10.0 mi Calm Calm - 0.00 in   Mostly Cloudy
5:53 AM 23.0 °F - 21.9 °F 96% 30.39 in 10.0 mi Calm Calm - N/A   Overcast
6:51 AM 21.2 °F 16.4 °F 21.2 °F 100% 30.28 in 10.0 mi South 3.5 mph - N/A   Overcast
6:53 AM 21.9 °F 15.7 °F 21.9 °F 100% 30.40 in 10.0 mi South 4.6 mph - N/A   Overcast
7:05 AM 21.2 °F 13.6 °F 21.2 °F 100% 30.28 in 8.0 mi South 5.8 mph - N/A   Overcast
7:15 AM 21.2 °F 16.4 °F 21.2 °F 100% 30.28 in 1.8 mi SSE 3.5 mph - N/A   Overcast
7:40 AM 21.2 °F 12.6 °F 21.2 °F 100% 30.28 in 0.8 mi South 6.9 mph - N/A   Overcast
7:53 AM 21.0 °F 14.6 °F 21.0 °F 100% 30.42 in 0.5 mi SSW 4.6 mph - N/A Fog Light Freezing Fog
8:51 AM 19.4 °F 11.5 °F 19.4 °F 100% 30.29 in 1.0 mi South 5.8 mph - N/A   Overcast
8:53 AM 19.9 °F 13.4 °F 19.9 °F 100% 30.43 in 1.5 mi South 4.6 mph - N/A   Overcast
8:58 AM 19.4 °F 14.3 °F 19.4 °F 100% 30.29 in 3.0 mi SE 3.5 mph - N/A   Overcast
9:26 AM 19.4 °F 6.0 °F 17.6 °F 93% 30.29 in 10.0 mi SW 13.8 mph - N/A   Mostly Cloudy
9:43 AM 21.2 °F 8.3 °F 19.4 °F 93% 30.28 in 10.0 mi SW 13.8 mph - N/A   Scattered Clouds
9:53 AM 21.9 °F 9.2 °F 21.0 °F 96% 30.41 in 10.0 mi SW 13.8 mph - N/A   Partly Cloudy
10:53 AM 23.0 °F 10.6 °F 21.0 °F 92% 30.40 in 10.0 mi SW 13.8 mph - N/A   Partly Cloudy
11:53 AM 24.1 °F 13.1 °F 21.9 °F 91% 30.37 in 10.0 mi SSW 11.5 mph - N/A   Clear
12:53 PM 24.1 °F 13.1 °F 21.9 °F 91% 30.35 in 10.0 mi South 11.5 mph - N/A   Clear
1:53 PM 24.1 °F 13.7 °F 21.9 °F 91% 30.32 in 10.0 mi South 10.4 mph - N/A   Clear
2:53 PM 25.0 °F 14.2 °F 21.9 °F 88% 30.28 in 10.0 mi SSE 11.5 mph - N/A   Clear
3:53 PM 24.1 °F 14.4 °F 21.0 °F 88% 30.28 in 10.0 mi SSE 9.2 mph - N/A   Clear
4:53 PM 21.0 °F 9.9 °F 18.0 °F 88% 30.30 in 10.0 mi South 10.4 mph - N/A   Clear
5:53 PM 19.9 °F 8.6 °F 18.0 °F 92% 30.27 in 10.0 mi South 10.4 mph - N/A   Clear
6:53 PM 19.9 °F 12.1 °F 18.0 °F 92% 30.28 in 10.0 mi SSE 5.8 mph - N/A   Clear
7:53 PM 21.0 °F 14.6 °F 18.0 °F 88% 30.27 in 10.0 mi South 4.6 mph - N/A   Clear
8:53 PM 19.0 °F 13.9 °F 17.1 °F 92% 30.27 in 10.0 mi Variable 3.5 mph - N/A   Clear
9:53 PM 24.1 °F 19.7 °F 19.0 °F 81% 30.24 in 10.0 mi Variable 3.5 mph - N/A   Clear
10:53 PM 25.0 °F 18.1 °F 19.0 °F 78% 30.22 in 10.0 mi SSW 5.8 mph - N/A   Clear
11:53 PM 19.9 °F - 15.1 °F 81% 30.22 in 10.0 mi Calm Calm - N/A   Clear